Regional Weather Roundup
Issued by NWS Cleveland, OH

Home | Current Version | Previous Version | Graphics & Text | Print | Product List | Glossary On
Versions: 1 2 3 4 5 6 7 8 9 10 11 12 13 14 15 16 17 18 19 20 21 22 23 24 25 26 27 28 29 30 31 32 33 34 35 36 37 38 39 40 41 42 43 44 45 46 47 48 49 50
000
ASUS41 KCLE 042200
RWRCLE
OHIO REGIONAL WEATHER ROUNDUP
NATIONAL WEATHER SERVICE WILMINGTON, OH
600 PM EDT FRI SEP 04 2015

NOTE: "FAIR" INDICATES FEW OR NO CLOUDS BELOW 12,000 FEET WITH NO
SIGNIFICANT WEATHER AND/OR OBSTRUCTIONS TO VISIBILITY.

OHZ001>008-015>018-024>027-034-035-043-044-042300-
   NORTHWEST OHIO

CITY           SKY/WX    TMP DP  RH WIND       PRES   REMARKS
DEFIANCE       CLOUDY    75  66  73 SW3       30.04R
FINDLAY        CLOUDY    71  63  75 S3        30.05R
TOLEDO EXPRESS CLOUDY    78  70  76 SW10      30.03R
TOLEDO EXEC    CLOUDY    76  67  73 SW8       30.03R
LIMA           CLOUDY    70  64  81 CALM      30.06R
$$

OHZ009>014-019>023-028>033-038-089-042300-
   NORTHEAST OHIO

CITY           SKY/WX    TMP DP  RH WIND       PRES   REMARKS
CLE-HOPKINS    MOSUNNY   81  67  62 SW10      30.06S
CLE-LAKEFRONT  MOSUNNY   85  68  56 MISG      30.02S
CUY CO. ARPT   PTSUNNY   86  68  54 S12       30.06R
LORAIN-ELYRIA  CLOUDY    76  68  76 SW6       30.06R
ASHTABULA      SUNNY     82  67  60 CALM      30.08R
AKRON-CANTON   PTSUNNY   81  64  56 S8        30.09R
WOOSTER        NOT AVBL
MANSFIELD      PTSUNNY   80  69  69 NW9       30.08R
YOUNGSTOWN     MOSUNNY   80  66  62 W6        30.09R
$$

OHZ042-051>053-060>062-070>072-077>081-042300-
  SOUTHWEST OHIO

CITY           SKY/WX    TMP DP  RH WIND       PRES   REMARKS
CINC-COVINGTON PTSUNNY   91  66  43 VRB5      30.02R HX  93
CINC-LUNKEN    FAIR      89  70  53 SE6       30.00R THUNDER HX  94
HAMILTON       MOSUNNY   82  64  54 NE16G33   30.05R THUNDER
DAYTON         NOT AVBL
WRIGHT-PAT AFB NOT AVBL
DAYTON GENERAL PTSUNNY   73  64  73 NE6       30.07R THUNDER
WILMINGTON     CLOUDY    73  61  65 NE26G33   30.08R THUNDER
$$

OHZ036-037-039>041-045>050-054>059-063>069-073>076-082>088-042300-
  CENTRAL AND SOUTHEAST OHIO

CITY           SKY/WX    TMP DP  RH WIND       PRES   REMARKS
COLUMBUS       TSTM      69  64  84 CALM      30.04F
OSU AIRPORT    LGT RAIN  69  66  90 E8        30.01F
BOLTON FIELD   RAIN      66  64  94 SE7       30.06F
RICKENBACK AFB NOT AVBL
NEWARK         LGT RAIN  74  62  66 W7        30.06R
MARION         CLOUDY    70  64  81 SE6       30.05S
LANCASTER      TSTM      69  64  84 SE7       30.11R VSB 1
ZANESVILLE     SUNNY     84  67  56 S3        30.06R
NEW PHILLY     MOSUNNY   78  69  73 W3        30.08R
$$



USA.gov is the U.S. government's official web portal to all federal, state and local government web resources and services.